Weather History for New Philadelphia, OH

Change the Weather History Date:

Friday, January 3, 2014

  Actual Average Record
Temperature  
Mean Temperature -12 °C -2 °C  
Max Temperature -9 °C 3 °C 15 °C (2005)
Min Temperature -14 °C -6 °C -19 °C (1979)
Degree Days  
Heating Degree Days 54 36  
Month to date heating degree days 132 108  
Since 1 July heating degree days 2333 2269  
Cooling Degree Days 0 0  
Month to date cooling degree days 0 0  
Year to date cooling degree days 0 0  
Moisture  
Dew Point -17 °C    
Average Humidity 64    
Maximum Humidity 76    
Minimum Humidity 51    
Precipitation  
Precipitation T mm 2.54 mm 4.06 mm (2000)
Month to date precipitation 0.10 0.32  
Year to date precipitation 0.10 0.32  
Sea Level Pressure  
Sea Level Pressure 1026 hPa    
Wind  
Wind Speed 10 km/h (NW)    
Max Wind Speed 27 km/h    
Max Gust Speed 39 km/h    
Visibility 12 kilometers    
Events Snow    
T = Trace of Precipitation, MM = Missing Value Source: NWS Daily Summary

Daily Weather History Graph

Daily Weather History Graph

Search for Another Location

Airport:

Trip Planner

Search our weather history database for the weather conditions in past years. The results will help you decide how hot, cold, wet, or windy it might be!

Date:

Astronomy

Jan. 03, 2014 Rise Set
Actual Time 7:49 AM EST 5:11 PM EST
Civil Twilight 7:18 AM EST 5:42 PM EST
Nautical Twilight 6:44 AM EST 6:16 PM EST
Astronomical Twilight 6:11 AM EST 6:49 PM EST
Moon 9:13 AM EST (1/3) 8:19 PM EST (1/3)
Length of Visible Light 10h 23m
Length of Day
9h 22m
Waxing Crescent, 8% of the Moon is Illuminated
Jan 3
Waxing Crescent
Jan 7
First Quarter
Jan 15
Full
Jan 24
Last Quarter
Jan 30
New

Hourly Weather History & Observations

Time (EST) Temp. Windchill Dew Point Humidity Pressure Visibility Wind Dir Wind Speed Gust Speed Precip Events Conditions
12:00 AM -10.0 °C -18.2 °C -14.0 °C 73% 1017.5 hPa 3.2 km NNW 22.2 km/h / 6.2 m/s 33.3 km/h / 9.3 m/s 0.0 mm Snow Light Snow
12:08 AM -10.0 °C -19.2 °C -14.0 °C 73% 1017.8 hPa 2.8 km NNW 27.8 km/h / 7.7 m/s 33.3 km/h / 9.3 m/s 0.0 mm Snow Light Snow
12:14 AM -10.0 °C -18.9 °C -15.0 °C 67% 1018.2 hPa 4.8 km NNW 25.9 km/h / 7.2 m/s 38.9 km/h / 10.8 m/s 0.0 mm Snow Light Snow
12:39 AM -11.0 °C -18.4 °C -15.0 °C 73% 1018.5 hPa 9.7 km NNW 16.7 km/h / 4.6 m/s 31.5 km/h / 8.7 m/s 0.0 mm   Haze
12:50 AM -11.0 °C -17.4 °C -14.0 °C 79% 1018.8 hPa 6.4 km NNW 13.0 km/h / 3.6 m/s 31.5 km/h / 8.7 m/s 0.0 mm Snow Light Snow
12:53 AM -10.6 °C -16.9 °C -14.4 °C 74% 1020.5 hPa 4.8 km NNW 13.0 km/h / 3.6 m/s - 0.0 mm Snow Light Snow
1:13 AM -11.0 °C -17.4 °C -14.0 °C 79% 1019.2 hPa 2.8 km NNW 13.0 km/h / 3.6 m/s - 0.0 mm Snow Light Snow
1:24 AM -11.0 °C -17.9 °C -14.0 °C 79% 1019.2 hPa 4.0 km NNW 14.8 km/h / 4.1 m/s - 0.0 mm Snow Light Snow
1:32 AM -11.0 °C -17.4 °C -14.0 °C 79% 1019.5 hPa 4.8 km NW 13.0 km/h / 3.6 m/s - 0.0 mm Snow Light Snow
1:41 AM -11.0 °C -19.2 °C -14.0 °C 79% 1019.5 hPa 4.0 km NNW 20.4 km/h / 5.7 m/s 25.9 km/h / 7.2 m/s 0.0 mm Snow Light Snow
1:53 AM -10.6 °C -17.4 °C -14.4 °C 74% 1021.8 hPa 4.0 km NNW 14.8 km/h / 4.1 m/s - 0.0 mm Snow Light Snow
2:09 AM -11.0 °C -16.8 °C -14.0 °C 79% 1020.5 hPa 2.0 km NW 11.1 km/h / 3.1 m/s - 0.0 mm Snow Light Snow
2:22 AM -11.0 °C -17.9 °C -14.0 °C 79% 1020.9 hPa 4.8 km NW 14.8 km/h / 4.1 m/s - 0.0 mm Snow Light Snow
2:53 AM -10.6 °C -17.9 °C -16.1 °C 65% 1023.2 hPa 16.1 km NW 16.7 km/h / 4.6 m/s 29.6 km/h / 8.2 m/s 0.0 mm   Overcast
3:41 AM -11.0 °C -17.9 °C -15.0 °C 73% 1022.6 hPa 9.7 km NW 14.8 km/h / 4.1 m/s - 0.0 mm Snow Light Snow
3:53 AM -10.6 °C -17.9 °C -15.0 °C 71% 1024.2 hPa 8.0 km NW 16.7 km/h / 4.6 m/s - 0.0 mm Snow Light Snow
4:53 AM -11.7 °C -20.0 °C -16.1 °C 70% 1025.4 hPa 9.7 km WNW 20.4 km/h / 5.7 m/s - 0.0 mm Snow Light Snow
5:34 AM -12.0 °C -20.0 °C -17.0 °C 67% 1024.6 hPa 16.1 km WNW 18.5 km/h / 5.1 m/s - 0.0 mm   Overcast
5:46 AM -12.0 °C -19.6 °C -17.0 °C 67% 1024.9 hPa 11.3 km WNW 16.7 km/h / 4.6 m/s - 0.0 mm Snow Light Snow
5:53 AM -12.2 °C -18.9 °C -16.7 °C 70% 1026.8 hPa 11.3 km WNW 13.0 km/h / 3.6 m/s - 0.0 mm Snow Light Snow
6:53 AM -13.3 °C -19.6 °C -17.8 °C 70% 1027.8 hPa 16.1 km WNW 11.1 km/h / 3.1 m/s - N/A   Partly Cloudy
7:53 AM -13.9 °C -20.3 °C -17.8 °C 73% 1029.1 hPa 16.1 km WNW 11.1 km/h / 3.1 m/s - N/A   Clear
8:53 AM -13.9 °C -20.3 °C -18.3 °C 70% 1030.5 hPa 16.1 km West 11.1 km/h / 3.1 m/s - N/A   Mostly Cloudy
9:53 AM -14.4 °C -21.5 °C -18.9 °C 69% 1031.7 hPa 16.1 km WNW 13.0 km/h / 3.6 m/s - N/A   Mostly Cloudy
10:48 AM -13.0 °C -17.7 °C -18.0 °C 67% 1030.0 hPa 16.1 km West 7.4 km/h / 2.1 m/s - N/A   Mostly Cloudy
10:53 AM -13.3 °C -19.6 °C -17.8 °C 70% 1031.9 hPa 16.1 km WNW 11.1 km/h / 3.1 m/s - N/A   Mostly Cloudy
11:06 AM -13.0 °C -18.5 °C -18.0 °C 67% 1030.0 hPa 16.1 km WNW 9.3 km/h / 2.6 m/s - N/A   Scattered Clouds
11:53 AM -12.2 °C -18.3 °C -17.8 °C 64% 1031.7 hPa 16.1 km WNW 11.1 km/h / 3.1 m/s - N/A   Clear
12:53 PM -10.6 °C -14.9 °C -17.2 °C 59% 1031.2 hPa 16.1 km NNW 7.4 km/h / 2.1 m/s - N/A   Clear
1:53 PM -10.6 °C -13.9 °C -17.8 °C 56% 1030.9 hPa 16.1 km West 5.6 km/h / 1.5 m/s - N/A   Clear
2:53 PM -9.4 °C -12.6 °C -17.8 °C 51% 1030.7 hPa 16.1 km Variable 5.6 km/h / 1.5 m/s - N/A   Clear
3:53 PM -9.4 °C - -18.3 °C 49% 1031.4 hPa 16.1 km Calm Calm - N/A   Clear
4:53 PM -10.0 °C -14.2 °C -18.3 °C 52% 1031.6 hPa 16.1 km WSW 7.4 km/h / 2.1 m/s - N/A   Clear
5:53 PM -10.6 °C - -18.3 °C 54% 1031.5 hPa 16.1 km Calm Calm - N/A   Clear
6:53 PM -11.1 °C -14.5 °C -18.3 °C 56% 1031.8 hPa 16.1 km South 5.6 km/h / 1.5 m/s - N/A   Clear
7:53 PM -12.8 °C -16.4 °C -18.3 °C 64% 1031.1 hPa 16.1 km SE 5.6 km/h / 1.5 m/s - N/A   Clear
8:53 PM -13.3 °C -18.0 °C -18.3 °C 67% 1030.2 hPa 16.1 km SE 7.4 km/h / 2.1 m/s - N/A   Partly Cloudy
9:53 PM -13.3 °C -18.0 °C -17.8 °C 70% 1030.3 hPa 16.1 km SE 7.4 km/h / 2.1 m/s - N/A   Overcast
10:53 PM -12.2 °C -17.6 °C -17.2 °C 67% 1029.5 hPa 16.1 km SSE 9.3 km/h / 2.6 m/s - N/A   Scattered Clouds
11:53 PM -12.2 °C -18.9 °C -16.7 °C 70% 1028.5 hPa 16.1 km SE 13.0 km/h / 3.6 m/s - N/A   Clear